Location: Newark
(40.9833°N, 0.0333°W)
Time: 01:14:56
(UTC+00:00)

Altair - Pass Details

Date: 28 October 2020
Orbit: 1502 x 1682 km, 47.2° (Epoch: 02 December)

Event Time Altitude Azimuth Distance (km) Brightness Sun altitude
Rises 03:47:14 0° 209° (SSW) 4,623 - -30.6°
Reaches altitude 10° 03:50:25 10° 203° (SSW) 3,651 - -30.0°
Exits shadow 03:52:34 18° 196° (SSW) 3,045 8.8 -29.6°
Maximum altitude 03:58:52 43° 135° (SE) 2,044 8.3 -28.4°
Drops below altitude 10° 04:07:32 10° 69° (ENE) 3,758 10.5 -26.8°
Sets 04:10:51 0° 63° (ENE) 4,770 11.2 -26.1°
